Thief River Falls, MN

8:43 AM CDT on July 22, 2017 (GMT -0500)
Thief River Falls Regional

Weather History for KTVF - September, 2013

Change the Weather History Date:

Friday, September 27, 2013

  Actual Average Record
Temperature  
Mean Temperature 56 °F -  
Max Temperature 62 °F 57 °F 84 °F (1990)
Min Temperature 51 °F 38 °F 27 °F (1980)
Degree Days  
Heating Degree Days 8    
Growing Degree Days 6 (Base 50)    
Moisture  
Dew Point 48 °F    
Average Humidity 80    
Maximum Humidity 88    
Minimum Humidity 63    
Precipitation  
Precipitation 0.33 in - - ()
Sea Level Pressure  
Sea Level Pressure 29.77 in    
Wind  
Wind Speed 8 mph (NNW)    
Max Wind Speed 13 mph    
Max Gust Speed -    
Visibility 9 miles    
Events Thunderstorm    
Averages and records for this station are not official NWS values.
T = Trace of Precipitation, MM = Missing Value Source: NWS Daily Summary

Daily Weather History Graph

Daily Weather History Graph

Search for Another Location

Airport or City:

Trip Planner

Search our weather history database for the weather conditions in past years. The results will help you decide how hot, cold, wet, or windy it might be!

Date:

Astronomy

Sep. 27, 2013 Rise Set
Actual Time 7:18 AM CDT 7:11 PM CDT
Civil Twilight 6:47 AM CDT 7:42 PM CDT
Nautical Twilight 6:11 AM CDT 8:18 PM CDT
Astronomical Twilight 5:34 AM CDT 8:55 PM CDT
Moon No Moon Rise 3:14 PM CDT (9/27)
Length of Visible Light 12h 54m
Length of Day
11h 52m
Last Quarter, 45% of the Moon is Illuminated
Sep 27
Last Quarter
Oct 4
New
Oct 11
First Quarter
Oct 18
Full
Oct 26
Last Quarter

Hourly Weather History & Observations

Time (CDT) Temp. Dew Point Humidity Pressure Visibility Wind Dir Wind Speed Gust Speed Precip Events Conditions
12:15 AM 62.6 °F 53.6 °F 72% 29.80 in 10.0 mi NNW 8.1 mph - N/A   Clear
12:35 AM 62.6 °F 51.8 °F 68% 29.81 in 10.0 mi NW 9.2 mph - N/A   Clear
12:55 AM 60.8 °F 51.8 °F 72% 29.81 in 10.0 mi NW 9.2 mph - N/A   Clear
1:15 AM 60.8 °F 51.8 °F 72% 29.81 in 10.0 mi NNW 6.9 mph - N/A   Clear
1:35 AM 59.0 °F 51.8 °F 77% 29.81 in 10.0 mi NNW 6.9 mph - N/A   Clear
1:55 AM 59.0 °F 51.8 °F 77% 29.81 in 10.0 mi NNW 8.1 mph - N/A   Clear
2:15 AM 59.0 °F 50.0 °F 72% 29.83 in 10.0 mi NNW 8.1 mph - N/A   Partly Cloudy
2:35 AM 59.0 °F 48.2 °F 67% 29.83 in 10.0 mi NNW 9.2 mph - N/A   Partly Cloudy
2:55 AM 57.2 °F 48.2 °F 72% 29.82 in 10.0 mi NNW 8.1 mph - N/A   Partly Cloudy
3:15 AM 59.0 °F 48.2 °F 67% 29.82 in 10.0 mi NNW 9.2 mph - N/A   Partly Cloudy
3:35 AM 57.2 °F 48.2 °F 72% 29.83 in 10.0 mi NNW 6.9 mph - N/A   Partly Cloudy
3:55 AM 57.2 °F 46.4 °F 67% 29.81 in 10.0 mi North 6.9 mph - N/A   Clear
4:15 AM 57.2 °F 48.2 °F 72% 29.81 in 10.0 mi North 6.9 mph - N/A   Partly Cloudy
4:35 AM 57.2 °F 46.4 °F 67% 29.80 in 10.0 mi North 11.5 mph - N/A   Partly Cloudy
4:55 AM 57.2 °F 44.6 °F 63% 29.80 in 10.0 mi North 6.9 mph - N/A   Partly Cloudy
5:15 AM 57.2 °F 44.6 °F 63% 29.79 in 10.0 mi North 8.1 mph - N/A   Clear
5:35 AM 57.2 °F 44.6 °F 63% 29.82 in 10.0 mi West 8.1 mph - N/A Thunderstorm Thunderstorm
5:55 AM 55.4 °F 46.4 °F 72% 29.78 in 10.0 mi North 8.1 mph - 0.03 in Thunderstorm Partly Cloudy
6:15 AM 53.6 °F 46.4 °F 77% 29.78 in 10.0 mi North 12.7 mph - N/A   Clear
6:35 AM 53.6 °F 48.2 °F 82% 29.79 in 10.0 mi North 6.9 mph - N/A Thunderstorm Thunderstorm
6:55 AM 53.6 °F 46.4 °F 77% 29.83 in 10.0 mi WNW 9.2 mph - 0.01 in Thunderstorm Thunderstorm
7:15 AM 53.6 °F 46.4 °F 77% 29.75 in 10.0 mi North 11.5 mph - 0.06 in Thunderstorm Thunderstorm
7:35 AM 51.8 °F 46.4 °F 82% 29.79 in 10.0 mi North 10.4 mph - 0.18 in Thunderstorm Thunderstorm
7:55 AM 51.8 °F 46.4 °F 82% 29.79 in 10.0 mi NE 6.9 mph - 0.18 in   Mostly Cloudy
8:15 AM 53.6 °F 46.4 °F 77% 29.79 in 10.0 mi North 5.8 mph - N/A   Overcast
8:35 AM 53.6 °F 46.4 °F 77% 29.80 in 10.0 mi North 8.1 mph - N/A   Overcast
8:55 AM 53.6 °F 46.4 °F 77% 29.79 in 10.0 mi NNW 10.4 mph - N/A   Overcast
9:15 AM 53.6 °F 46.4 °F 77% 29.78 in 10.0 mi North 11.5 mph - N/A   Overcast
9:35 AM 53.6 °F 46.4 °F 77% 29.79 in 10.0 mi NNW 10.4 mph - N/A   Overcast
9:55 AM 53.6 °F 46.4 °F 77% 29.78 in 10.0 mi NNE 5.8 mph - N/A   Mostly Cloudy
10:15 AM 53.6 °F 46.4 °F 77% 29.78 in 10.0 mi NNE 5.8 mph - N/A   Mostly Cloudy
10:35 AM 53.6 °F 46.4 °F 77% 29.78 in 10.0 mi North 5.8 mph - N/A   Overcast
10:55 AM 53.6 °F 48.2 °F 82% 29.78 in 10.0 mi NNW 8.1 mph - N/A   Overcast
11:15 AM 53.6 °F 48.2 °F 82% 29.78 in 10.0 mi NNW 8.1 mph - N/A   Overcast
11:35 AM 53.6 °F 46.4 °F 77% 29.78 in 10.0 mi NNW 6.9 mph - N/A   Overcast
11:55 AM 53.6 °F 48.2 °F 82% 29.77 in 10.0 mi North 6.9 mph - N/A   Overcast
12:15 PM 53.6 °F 48.2 °F 82% 29.76 in 10.0 mi NNE 8.1 mph - N/A   Overcast
12:35 PM 53.6 °F 48.2 °F 82% 29.75 in 10.0 mi NNE 6.9 mph - N/A   Overcast
12:55 PM 53.6 °F 48.2 °F 82% 29.75 in 10.0 mi North 6.9 mph - N/A   Overcast
1:15 PM 53.6 °F 48.2 °F 82% 29.75 in 5.0 mi North 6.9 mph - N/A   Overcast
1:35 PM 53.6 °F 48.2 °F 82% 29.75 in 1.8 mi NNW 9.2 mph - N/A   Overcast
1:55 PM 51.8 °F 48.2 °F 88% 29.74 in 1.8 mi NNW 10.4 mph - N/A   Overcast
2:15 PM 51.8 °F 48.2 °F 88% 29.74 in 3.0 mi NNW 9.2 mph - N/A   Overcast
2:35 PM 51.8 °F 48.2 °F 88% 29.73 in 3.0 mi North 8.1 mph - N/A   Overcast
2:55 PM 51.8 °F 48.2 °F 88% 29.73 in 2.0 mi NNW 10.4 mph - N/A   Overcast
3:15 PM 51.8 °F 46.4 °F 82% 29.73 in 2.0 mi NNW 10.4 mph - N/A   Overcast
3:35 PM 51.8 °F 46.4 °F 82% 29.73 in 5.0 mi NNW 11.5 mph - N/A   Overcast
3:55 PM 51.8 °F 46.4 °F 82% 29.73 in 10.0 mi NNW 8.1 mph - N/A   Overcast
4:15 PM 51.8 °F 46.4 °F 82% 29.72 in 7.0 mi NNW 10.4 mph - 0.01 in   Overcast
4:35 PM 51.8 °F 48.2 °F 88% 29.72 in 6.0 mi North 9.2 mph - 0.02 in   Overcast
4:55 PM 51.8 °F 48.2 °F 88% 29.74 in 10.0 mi NNW 9.2 mph - 0.02 in   Overcast
5:15 PM 53.6 °F 48.2 °F 82% 29.74 in 10.0 mi NNW 8.1 mph - N/A   Overcast
5:35 PM 51.8 °F 48.2 °F 88% 29.75 in 5.0 mi NNW 9.2 mph - N/A   Overcast
5:55 PM 51.8 °F 48.2 °F 88% 29.75 in 8.0 mi NW 6.9 mph - 0.02 in   Overcast
6:15 PM 51.8 °F 48.2 °F 88% 29.75 in 8.0 mi NW 8.1 mph - 0.04 in   Overcast
6:35 PM 51.8 °F 48.2 °F 88% 29.75 in 9.0 mi NNW 5.8 mph - 0.04 in   Overcast
6:55 PM 51.8 °F 46.4 °F 82% 29.75 in 8.0 mi NNW 5.8 mph - 0.05 in   Overcast
7:15 PM 51.8 °F 48.2 °F 88% 29.74 in 8.0 mi NNW 5.8 mph - N/A   Overcast
7:35 PM 51.8 °F 48.2 °F 88% 29.74 in 10.0 mi NNW 4.6 mph - N/A   Overcast
7:55 PM 51.8 °F 48.2 °F 88% 29.73 in 10.0 mi North 5.8 mph - 0.02 in   Mostly Cloudy
8:15 PM 51.8 °F 46.4 °F 82% 29.75 in 10.0 mi NNW 3.5 mph - N/A   Overcast
8:35 PM 51.8 °F 46.4 °F 82% 29.75 in 10.0 mi NNW 3.5 mph - N/A   Mostly Cloudy
8:55 PM 51.8 °F 46.4 °F 82% 29.75 in 10.0 mi WNW 4.6 mph - N/A   Overcast
9:15 PM 51.8 °F 46.4 °F 82% 29.76 in 10.0 mi West 6.9 mph - N/A   Overcast
9:35 PM 51.8 °F 48.2 °F 88% 29.76 in 10.0 mi West 4.6 mph - N/A   Overcast
9:55 PM 51.8 °F 48.2 °F 88% 29.77 in 10.0 mi West 6.9 mph - N/A   Overcast
10:15 PM 51.8 °F 48.2 °F 88% 29.77 in 10.0 mi WNW 6.9 mph - N/A   Overcast
10:35 PM 51.8 °F 48.2 °F 88% 29.77 in 10.0 mi WNW 9.2 mph - N/A   Overcast
10:55 PM 51.8 °F 46.4 °F 82% 29.77 in 10.0 mi WNW 9.2 mph - N/A   Overcast
11:15 PM 51.8 °F 46.4 °F 82% 29.76 in 10.0 mi NW 9.2 mph - N/A   Overcast
11:35 PM 51.8 °F 46.4 °F 82% 29.77 in 10.0 mi WNW 5.8 mph - N/A   Overcast
11:55 PM 51.8 °F 46.4 °F 82% 29.77 in 10.0 mi WNW 6.9 mph - N/A   Overcast